Date_and_time,latitude,longitude,wind_speed,RelWindDirFrom,WindDirFrom,air_pressure,air_temperature,relative_humidity,Temp,platform_speed_wrt_ground,air_pressure_at_mean_sea_level,platform_orientation
2019-10-15 23:40,50.6304283333333,-96.9807566666667,5.8,8.1,287,992.95,3.7,99,6.27,0.0,1020.60,0.0
2019-10-15 23:50,50.63043,-96.9807566666667,5.5,8.3,289,993.03,3.6,99,6.27,0.0,1020.67,0.0
2019-10-16 00:00,50.63043,-96.9807583333333,5.0,7.5,288,993.13,3.6,99,6.27,0.0,1020.77,90.0
2019-10-16 00:10,50.63043,-96.9807583333333,5.5,9.8,299,993.27,3.6,99,6.27,0.0,1020.90,90.0
2019-10-16 00:20,50.630435,-96.9807566666667,6.7,9.7,308,993.31,3.6,99,6.27,0.0,1020.94,90.0
2019-10-16 00:30,50.6304333333333,-96.9807583333333,5.9,9.8,312,993.32,3.6,99,6.27,0.0,1020.94,90.0
2019-10-16 00:40,50.6304316666667,-96.9807583333333,6.3,9.9,313,993.34,3.5,99,6.27,0.0,1020.97,90.0
2019-10-16 00:50,50.6304316666667,-96.9807583333333,5.4,7.8,307,993.42,3.5,99,6.27,0.0,1021.05,90.0
2019-10-16 01:00,50.6304333333333,-96.9807583333333,4.4,6.8,300,993.51,3.4,99,6.27,0.0,1021.16,12.6
2019-10-16 01:10,50.630435,-96.98076,4.7,7.6,300,993.49,3.3,99,6.27,0.0,1021.14,12.6
2019-10-16 01:20,50.630435,-96.9807616666667,5.4,7.3,302,993.42,3.3,99,6.28,0.0,1021.08,12.6
2019-10-16 01:30,50.6304466666667,-96.9807433333333,5.8,8.3,296,993.49,3.2,99,6.29,0.0,1021.16,12.6
2019-10-16 01:40,50.630435,-96.9807583333333,5.7,8.8,293,993.57,3.1,99,6.30,0.0,1021.24,12.6
2019-10-16 01:50,50.6304316666667,-96.9807616666667,5.2,7.5,290,993.52,3.1,99,6.31,0.0,1021.20,12.6
2019-10-16 02:00,50.6304333333333,-96.9807616666667,5.7,9.6,301,993.42,3.0,99,6.31,0.0,1021.10,360.0
2019-10-16 02:10,50.6304366666667,-96.9807816666667,6.0,8.3,297,993.43,3.0,99,6.31,0.0,1021.11,360.0
2019-10-16 02:20,50.630435,-96.9807683333333,6.2,8.8,291,993.51,2.9,99,6.31,0.0,1021.20,360.0
2019-10-16 02:30,50.630435,-96.9807666666667,7.5,11.4,284,993.64,2.9,99,6.30,0.0,1021.33,360.0
2019-10-16 02:40,50.630435,-96.9807633333333,6.9,10.1,282,993.89,2.8,99,6.30,0.0,1021.60,360.0
2019-10-16 02:50,50.630435,-96.9807616666667,6.0,9.2,284,994.07,2.8,99,6.30,0.0,1021.79,360.0
2019-10-16 03:00,50.630435,-96.9807616666667,6.5,9.9,293,993.99,2.8,99,6.29,0.0,1021.71,360.0
2019-10-16 03:10,50.630435,-96.9807616666667,6.5,10.5,292,993.99,2.8,99,6.29,0.0,1021.71,360.0
2019-10-16 03:20,50.630435,-96.98076,5.8,8.6,284,994.05,2.7,99,6.28,0.0,1021.78,360.0
2019-10-16 03:30,50.6304216666667,-96.98076,6.2,9.3,292,994.04,2.6,100,6.27,0.0,1021.79,360.0
2019-10-16 03:40,50.63043,-96.980755,5.8,8.7,281,994.10,2.4,100,6.26,0.0,1021.86,360.0
2019-10-16 03:50,50.6304416666667,-96.980745,5.6,8.5,278,994.08,2.3,100,6.27,0.0,1021.84,360.0
2019-10-16 04:00,50.63044,-96.98076,5.7,8.9,282,994.08,2.3,100,6.26,0.0,1021.84,360.0
2019-10-16 04:10,50.6304333333333,-96.980755,5.9,8.4,283,994.07,2.4,100,6.26,0.0,1021.84,360.0
2019-10-16 04:20,50.630435,-96.9807566666667,5.8,8.8,287,994.02,2.4,100,6.26,0.0,1021.78,360.0
2019-10-16 04:30,50.630435,-96.9807583333333,5.6,7.5,290,994.00,2.4,100,6.27,0.0,1021.76,360.0
2019-10-16 04:40,50.630435,-96.9807566666667,6.1,9.6,290,993.95,2.4,100,6.27,0.0,1021.72,360.0
2019-10-16 04:50,50.6304366666667,-96.9807566666667,5.5,8.0,300,994.01,2.3,100,6.26,0.0,1021.78,360.0
2019-10-16 05:00,50.6304366666667,-96.980795,4.7,7.8,302,994.01,2.4,100,6.27,0.0,1021.78,281.6
2019-10-16 05:10,50.63043,-96.9807616666667,4.4,7.2,295,993.94,2.3,100,6.27,0.0,1021.71,281.6
2019-10-16 05:20,50.6304316666667,-96.9807583333333,5.5,8.5,303,993.90,2.3,100,6.28,0.0,1021.68,281.6
2019-10-16 05:30,50.63043,-96.9807533333333,5.0,8.3,302,993.96,2.3,100,6.27,0.0,1021.75,281.6
2019-10-16 05:40,50.6304333333333,-96.98076,5.4,8.7,304,994.00,2.3,100,6.27,0.0,1021.80,281.6
2019-10-16 05:50,50.6304333333333,-96.9807566666667,5.5,7.5,303,994.02,2.3,100,6.27,0.0,1021.82,281.6
2019-10-16 06:00,50.6304333333333,-96.9807583333333,6.0,9.2,305,994.05,2.2,100,6.27,0.0,1021.85,142.0
2019-10-16 06:10,50.6304416666667,-96.9807566666667,5.5,8.3,307,994.05,2.2,100,6.27,0.0,1021.85,142.0
2019-10-16 06:20,50.6304366666667,-96.980755,6.0,9.4,309,994.02,2.1,100,6.26,0.0,1021.82,142.0
2019-10-16 06:30,50.630435,-96.9807566666667,5.7,9.4,303,994.00,2.0,100,6.28,0.0,1021.81,142.0
2019-10-16 06:40,50.6304333333333,-96.980755,5.3,8.4,297,994.02,2.0,100,6.30,0.0,1021.83,142.0
2019-10-16 06:50,50.630435,-96.9807566666667,5.7,8.1,289,994.06,1.9,100,6.32,0.0,1021.88,142.0
2019-10-16 07:00,50.630435,-96.9807583333333,6.1,9.0,289,994.13,1.8,100,6.33,0.0,1021.96,360.0
2019-10-16 07:10,50.630435,-96.9807583333333,6.3,8.8,293,994.11,1.8,100,6.31,0.0,1021.93,360.0
2019-10-16 07:20,50.6304333333333,-96.9807583333333,6.3,9.6,294,993.99,1.7,100,6.31,0.0,1021.82,360.0
2019-10-16 07:30,50.6304416666667,-96.9807666666667,6.7,9.4,295,993.99,1.7,100,6.32,0.0,1021.82,360.0
2019-10-16 07:40,50.6304383333333,-96.9807583333333,6.6,10.0,300,993.95,1.6,100,6.32,0.0,1021.79,360.0
2019-10-16 07:50,50.630415,-96.9807466666667,7.6,10.3,309,993.89,1.5,100,6.32,0.0,1021.74,360.0
2019-10-16 08:00,50.63043,-96.980755,6.7,9.4,310,993.85,1.3,100,6.30,0.0,1021.71,112.7
2019-10-16 08:10,50.6304266666667,-96.980755,6.3,8.9,310,993.85,1.2,100,6.30,0.0,1021.71,112.7
2019-10-16 08:20,50.630425,-96.9807566666667,6.0,8.8,306,993.87,1.2,100,6.30,0.0,1021.74,112.7
2019-10-16 08:30,50.6304266666667,-96.980755,7.2,9.4,309,993.90,1.1,100,6.28,0.0,1021.78,112.7
2019-10-16 08:40,50.6304283333333,-96.98076,6.1,9.0,305,993.97,1.0,100,6.27,0.0,1021.86,112.7
2019-10-16 08:50,50.6304283333333,-96.9807583333333,5.6,7.7,305,994.00,1.0,100,6.25,0.0,1021.89,112.7
2019-10-16 09:00,50.6304283333333,-96.9807566666667,4.4,6.9,303,993.99,1.1,100,6.24,0.0,1021.88,360.0
2019-10-16 09:10,50.63043,-96.9807566666667,4.5,7.2,305,993.91,1.1,100,6.25,0.0,1021.80,360.0
2019-10-16 09:20,50.63043,-96.9807566666667,5.4,8.1,311,993.88,1.0,100,6.26,0.0,1021.78,360.0
2019-10-16 09:30,50.6304316666667,-96.9807566666667,6.1,8.4,302,993.92,1.0,100,6.26,0.0,1021.82,360.0
2019-10-16 09:40,50.6304316666667,-96.9807583333333,6.3,8.3,304,993.91,0.9,100,6.26,0.0,1021.82,360.0
2019-10-16 09:50,50.630435,-96.9807766666667,5.8,7.7,312,993.85,0.9,100,6.26,0.0,1021.77,360.0
2019-10-16 10:00,50.63044,-96.9807716666667,5.3,7.7,313,993.89,0.9,100,6.25,0.0,1021.81,305.3
2019-10-16 10:10,50.6304366666667,-96.9807683333333,5.5,7.8,326,993.88,1.0,100,6.25,0.0,1021.80,305.3
2019-10-16 10:20,50.6304466666667,-96.9807666666667,6.2,8.5,330,993.73,0.9,100,6.23,0.0,1021.66,305.3
2019-10-16 10:30,50.6304266666667,-96.98075,6.3,7.9,307,993.71,0.6,99,6.22,0.0,1021.66,305.3
2019-10-16 10:40,50.6304233333333,-96.9807483333333,5.6,7.4,306,993.82,0.4,100,6.21,0.0,1021.78,305.3
2019-10-16 10:50,50.6304266666667,-96.980755,4.5,6.4,301,993.93,0.2,100,6.18,0.0,1021.89,305.3
2019-10-16 11:00,50.6304266666667,-96.980755,5.7,7.7,336,993.89,0.3,100,6.16,0.0,1021.85,0.0
2019-10-16 11:10,50.6304283333333,-96.9807566666667,5.3,6.7,328,993.87,0.1,100,6.15,0.0,1021.84,0.0
2019-10-16 11:20,50.63043,-96.9807583333333,4.9,7.2,322,993.98,-0.0,100,6.15,0.0,1021.97,0.0
2019-10-16 11:30,50.630425,-96.9807566666667,4.9,6.5,321,993.94,-0.1,100,6.15,0.0,1021.94,0.0
2019-10-16 11:40,50.6304283333333,-96.98074,4.5,6.2,310,993.81,-0.1,100,6.15,0.0,1021.80,0.0
2019-10-16 11:50,50.63042,-96.98076,4.6,6.7,290,993.75,-0.1,100,6.15,0.0,1021.74,0.0
2019-10-16 12:00,50.6304283333333,-96.9807516666667,4.3,6.4,282,993.74,-0.1,100,6.13,0.0,1021.73,90.0
2019-10-16 12:10,50.6304166666667,-96.9807533333333,3.9,5.8,285,993.60,-0.1,100,6.10,0.0,1021.59,90.0
2019-10-16 12:20,50.63042,-96.9807516666667,3.2,4.8,280,993.42,-0.1,100,6.07,0.0,1021.41,90.0
2019-10-16 12:30,50.6304216666667,-96.9807566666667,3.8,5.2,280,993.43,-0.2,100,6.06,0.0,1021.44,90.0
2019-10-16 12:40,50.6304233333333,-96.9807566666667,3.0,4.8,273,993.33,-0.2,100,6.03,0.0,1021.34,90.0
2019-10-16 12:50,50.630435,-96.9807816666667,3.9,5.6,272,993.37,-0.3,100,6.03,0.0,1021.39,90.0
2019-10-16 13:00,50.6304316666667,-96.98078,4.4,6.7,275,993.41,-0.3,100,6.03,0.0,1021.44,216.6
2019-10-16 13:10,50.6304333333333,-96.9807783333333,4.9,6.7,278,993.43,-0.3,100,6.03,0.0,1021.47,216.6
2019-10-16 13:20,50.630435,-96.980775,4.9,6.2,272,993.40,-0.4,100,6.03,0.0,1021.45,216.6
2019-10-16 13:30,50.630435,-96.9807716666667,4.7,6.5,260,993.44,-0.4,100,6.03,0.0,1021.49,216.6
2019-10-16 13:40,50.6304216666667,-96.98077,4.3,6.3,268,993.38,-0.3,100,6.03,0.0,1021.42,216.6
2019-10-16 13:50,50.6303916666667,-96.9807783333333,4.4,6.5,268,993.33,-0.2,100,6.03,0.0,1021.36,216.6
2019-10-16 14:00,50.6304266666667,-96.98077,4.6,6.4,262,993.19,-0.4,100,6.05,0.0,1021.23,270.0
2019-10-16 14:10,50.63042,-96.9807716666667,3.8,5.5,276,993.04,-0.4,100,6.07,0.0,1021.08,270.0
2019-10-16 14:20,50.6304266666667,-96.9807583333333,3.6,5.1,291,992.93,-0.3,100,6.08,0.0,1020.97,270.0
2019-10-16 14:30,50.63042,-96.9807466666667,4.2,5.1,292,992.92,-0.3,100,6.08,0.0,1020.96,270.0
2019-10-16 14:40,50.63043,-96.9808116666667,3.7,4.9,289,992.91,-0.2,100,6.08,0.0,1020.94,270.0
2019-10-16 14:50,50.6304266666667,-96.9807616666667,3.5,4.6,283,992.91,0.0,100,6.08,0.0,1020.93,270.0
2019-10-16 15:00,50.6304333333333,-96.9807516666667,3.7,4.8,263,993.04,0.3,100,6.06,0.0,1021.05,360.0
2019-10-16 15:10,50.6304216666667,-96.9807833333333,3.4,5.2,262,993.11,0.5,100,6.05,0.0,1021.12,360.0
2019-10-16 15:20,50.630405,-96.9807733333333,2.6,3.8,262,993.07,0.7,100,6.03,0.0,1021.06,360.0
2019-10-16 15:30,50.6304166666667,-96.9807783333333,2.2,3.1,254,993.10,0.9,100,6.04,0.0,1021.07,360.0
2019-10-16 15:40,50.6304116666667,-96.9807783333333,1.2,2.8,300,993.02,1.2,100,6.04,0.0,1020.98,360.0
2019-10-16 15:50,50.630425,-96.9807533333333,0.7,2.6,311,993.00,1.4,100,6.05,0.0,1020.96,360.0
2019-10-16 16:00,50.63042,-96.9807583333333,0.0,0.5,0,992.95,1.6,100,6.06,0.0,1020.90,122.3
2019-10-16 16:10,50.63042,-96.980765,0.2,1.9,337,992.88,1.7,100,6.06,0.0,1020.81,122.3
2019-10-16 16:20,50.6304383333333,-96.9807666666667,0.6,2.1,1,992.78,1.8,99,6.07,0.0,1020.71,122.3
2019-10-16 16:30,50.6304366666667,-96.9807616666667,0.2,1.0,301,992.82,1.8,99,6.08,0.0,1020.74,122.3
2019-10-16 16:40,50.6304366666667,-96.980765,0.2,1.4,240,992.84,1.9,99,6.11,0.0,1020.75,122.3
2019-10-16 16:50,50.6304383333333,-96.9807666666667,1.0,1.6,163,992.84,1.8,99,6.12,0.0,1020.74,122.3
2019-10-16 17:00,50.6304383333333,-96.9807633333333,0.2,1.4,164,992.80,2.1,97,6.12,0.0,1020.67,360.0
2019-10-16 17:10,50.630465,-96.980785,0.2,1.1,185,992.71,2.4,94,6.13,0.0,1020.55,360.0
2019-10-16 17:20,50.6304466666667,-96.98077,0.5,2.1,130,992.60,2.7,92,6.14,0.0,1020.41,360.0
2019-10-16 17:30,50.6304416666667,-96.9807633333333,1.3,2.5,115,992.55,2.8,93,6.15,0.0,1020.34,360.0
2019-10-16 17:40,50.63044,-96.9807616666667,1.7,3.2,129,992.43,2.5,93,6.17,0.0,1020.23,360.0
2019-10-16 17:50,50.6304383333333,-96.98076,2.9,5.2,116,992.23,2.8,93,6.18,0.0,1019.99,360.0
2019-10-16 18:00,50.6304366666667,-96.98076,3.4,6.1,124,992.02,2.6,94,6.19,0.0,1019.78,311.7
2019-10-16 18:10,50.6304366666667,-96.9807616666667,5.0,6.5,125,991.84,2.6,96,6.19,0.0,1019.58,311.7
2019-10-16 18:20,50.6304366666667,-96.9807616666667,5.0,6.5,134,991.70,2.3,97,6.17,0.0,1019.46,311.7
2019-10-16 18:30,50.6304366666667,-96.9807683333333,4.8,6.2,143,991.66,2.2,96,6.16,0.0,1019.42,311.7
2019-10-16 18:40,50.6304383333333,-96.98076,5.4,7.2,131,991.44,2.4,97,6.18,0.0,1019.19,311.7
2019-10-16 18:50,50.630435,-96.9807466666667,5.9,7.3,128,991.34,2.6,97,6.19,0.0,1019.06,311.7
2019-10-16 19:00,50.6304366666667,-96.9807533333333,5.3,7.1,137,991.44,2.4,96,6.21,0.0,1019.16,23.5
2019-10-16 19:10,50.6304383333333,-96.9807583333333,4.5,6.2,142,991.41,2.4,96,6.25,0.0,1019.11,23.5
2019-10-16 19:20,50.6304483333333,-96.9807483333333,2.8,5.4,125,991.34,2.8,97,6.29,0.0,1019.02,23.5
2019-10-16 19:30,50.6304416666667,-96.980755,3.5,4.9,132,991.36,2.9,94,6.30,0.0,1019.05,23.5
2019-10-16 19:40,50.630445,-96.9807583333333,3.2,5.0,140,991.22,2.9,93,6.30,0.0,1018.89,23.5
2019-10-16 19:50,50.63043,-96.980765,4.5,5.9,143,991.10,2.7,93,6.30,0.0,1018.79,23.5
2019-10-16 20:00,50.6304283333333,-96.98076,4.4,6.3,142,991.07,2.7,94,6.30,0.0,1018.75,360.0
2019-10-16 20:10,50.6304283333333,-96.980765,4.1,5.1,191,991.02,2.6,95,6.31,0.0,1018.72,360.0
2019-10-16 20:20,50.6304233333333,-96.9807616666667,4.6,5.6,195,991.06,2.4,96,6.31,0.0,1018.77,360.0
2019-10-16 20:30,50.63044,-96.9807666666667,3.3,4.6,196,990.92,2.4,98,6.32,0.0,1018.62,360.0
2019-10-16 20:40,50.630435,-96.9807583333333,3.0,4.2,179,990.77,2.4,99,6.32,0.0,1018.46,360.0
2019-10-16 20:50,50.630435,-96.9807583333333,3.7,4.9,162,990.68,2.3,99,6.32,0.0,1018.38,360.0
2019-10-16 21:00,50.6304366666667,-96.9807583333333,3.5,5.9,152,990.55,2.3,99,6.32,0.0,1018.25,0.0
2019-10-16 21:10,50.630435,-96.98076,4.9,6.9,142,990.39,2.4,99,6.32,0.0,1018.06,0.0
2019-10-16 21:20,50.6304333333333,-96.9807616666667,5.3,6.6,133,990.21,2.5,99,6.33,0.0,1017.87,0.0
2019-10-16 21:30,50.6304333333333,-96.98076,6.3,8.2,132,990.12,2.6,99,6.34,0.0,1017.77,0.0
2019-10-16 21:40,50.6304316666667,-96.9807616666667,6.4,8.2,139,990.07,2.5,99,6.35,0.0,1017.73,0.0
2019-10-16 21:50,50.6304316666667,-96.9807683333333,5.8,7.7,137,990.10,2.7,98,6.33,0.0,1017.75,0.0
2019-10-16 22:00,50.630435,-96.98077,6.6,8.0,128,990.12,2.9,98,6.32,0.0,1017.76,270.0
2019-10-16 22:10,50.6304366666667,-96.980765,6.4,8.5,124,990.11,3.1,98,6.31,0.0,1017.76,270.0
2019-10-16 22:20,50.630435,-96.9807666666667,6.0,8.1,127,990.14,3.1,96,6.31,0.0,1017.79,270.0
2019-10-16 22:30,50.630435,-96.9807666666667,6.7,8.6,117,990.10,3.4,95,6.30,0.0,1017.73,270.0
2019-10-16 22:40,50.6304233333333,-96.9807666666667,5.9,8.2,127,990.12,3.2,97,6.29,0.0,1017.77,270.0
2019-10-16 22:50,50.6304266666667,-96.980765,6.7,9.1,125,990.00,3.3,96,6.28,0.0,1017.64,270.0
2019-10-16 23:00,50.6304316666667,-96.9807633333333,7.6,9.6,121,989.76,3.5,95,6.28,0.0,1017.38,347.4
2019-10-16 23:10,50.6304316666667,-96.9807616666667,7.5,9.5,112,989.75,3.6,96,6.27,0.0,1017.36,347.4
2019-10-16 23:20,50.6304316666667,-96.9807616666667,8.1,10.0,104,989.73,3.7,97,6.27,0.0,1017.33,347.4
2019-10-16 23:30,50.6304316666667,-96.9807616666667,9.6,11.2,105,989.59,3.8,96,6.27,0.0,1017.18,347.4
2019-10-16 23:40,50.6304333333333,-96.9807616666667,9.6,11.2,109,989.59,3.8,95,6.28,0.0,1017.16,347.4
